Alexandria, LA

5:27 AM CDT on August 17, 2017 (GMT -0500)
Alexandria International

Weather History for KAEX - December, 2010

Change the Weather History Date:

Monday, December 13, 2010

  Actual Average Record
Temperature  
Mean Temperature 36 °F 50 °F  
Max Temperature 46 °F 60 °F 81 °F (1931)
Min Temperature 26 °F 40 °F 14 °F (1962)
Degree Days  
Heating Degree Days 29 15  
Month to date heating degree days 223 184  
Since 1 July heating degree days 514 509  
Moisture  
Dew Point 11 °F    
Average Humidity 41    
Maximum Humidity 63    
Minimum Humidity 18    
Precipitation  
Precipitation 0.00 in 0.18 in 3.36 in (1956)
Month to date precipitation 0.15 3.11  
Year to date precipitation 35.81 52.91  
Snow  
Snow 0.00 in - 0.00 in ()
Month to date snowfall 0.0  
Since 1 July snowfall 0.0  
Snow Depth 0.00 in    
Sea Level Pressure  
Sea Level Pressure 30.28 in    
Wind  
Wind Speed 6 mph (NNW)    
Max Wind Speed 14 mph    
Max Gust Speed 18 mph    
Visibility 10 miles    
Events      
T = Trace of Precipitation, MM = Missing Value Source: NWS Daily Summary

Daily Weather History Graph

Daily Weather History Graph

Search for Another Location

Airport or City:

Trip Planner

Search our weather history database for the weather conditions in past years. The results will help you decide how hot, cold, wet, or windy it might be!

Date:

Astronomy

Dec. 13, 2010 Rise Set
Actual Time 7:00 AM CST 5:08 PM CST
Civil Twilight 6:33 AM CST 5:35 PM CST
Nautical Twilight 6:03 AM CST 6:05 PM CST
Astronomical Twilight 5:33 AM CST 6:35 PM CST
Moon 12:04 PM CST (12/13) No Moon Set
Length of Visible Light 11h 01m
Length of Day
10h 08m
First Quarter, 52% of the Moon is Illuminated
Dec 13
First Quarter
Dec 21
Full
Dec 27
Last Quarter
Jan 4
New
Jan 12
First Quarter

Hourly Weather History & Observations

Time (CST) Temp. Windchill Dew Point Humidity Pressure Visibility Wind Dir Wind Speed Gust Speed Precip Events Conditions
12:53 AM 32.0 °F 24.8 °F 16.0 °F 52% 30.25 in 10.0 mi NW 8.1 mph - N/A   Clear
1:53 AM 32.0 °F 24.2 °F 16.0 °F 52% 30.25 in 10.0 mi NW 9.2 mph - N/A   Clear
2:53 AM 30.9 °F 23.5 °F 15.1 °F 52% 30.25 in 10.0 mi NW 8.1 mph - N/A   Clear
3:53 AM 30.9 °F 23.5 °F 15.1 °F 52% 30.25 in 10.0 mi NW 8.1 mph - N/A   Clear
4:53 AM 28.9 °F 21.1 °F 16.0 °F 58% 30.26 in 10.0 mi NW 8.1 mph - N/A   Clear
5:53 AM 27.0 °F 20.5 °F 16.0 °F 63% 30.27 in 10.0 mi WNW 5.8 mph - N/A   Clear
6:53 AM 27.0 °F 20.5 °F 16.0 °F 63% 30.29 in 10.0 mi NW 5.8 mph - N/A   Clear
7:53 AM 30.0 °F 21.7 °F 14.0 °F 51% 30.31 in 10.0 mi NW 9.2 mph - N/A   Clear
8:53 AM 33.8 °F 27.0 °F 12.2 °F 41% 30.30 in 10.0 mi North 8.1 mph - N/A   Clear
9:53 AM 36.0 °F 30.3 °F 7.0 °F 30% 30.33 in 10.0 mi NNW 6.9 mph - N/A   Clear
10:53 AM 39.0 °F 33.4 °F 1.0 °F 20% 30.32 in 10.0 mi NW 8.1 mph - N/A   Clear
11:53 AM 41.0 °F 36.4 °F 3.0 °F 21% 30.30 in 10.0 mi NNW 6.9 mph - N/A   Clear
12:53 PM 42.1 °F 37.1 °F 3.0 °F 20% 30.28 in 10.0 mi NNW 8.1 mph - N/A   Clear
1:53 PM 45.0 °F 40.6 °F 3.0 °F 18% 30.26 in 10.0 mi NW 8.1 mph - N/A   Clear
2:53 PM 45.0 °F 40.6 °F 3.9 °F 18% 30.26 in 10.0 mi WNW 8.1 mph - N/A   Mostly Cloudy
3:53 PM 44.1 °F 41.5 °F 3.9 °F 19% 30.26 in 10.0 mi NNW 4.6 mph - N/A   Overcast
4:53 PM 42.1 °F - 7.0 °F 24% 30.26 in 10.0 mi Calm Calm - N/A   Mostly Cloudy
5:53 PM 37.4 °F - 10.4 °F 33% 30.24 in 10.0 mi Calm Calm - N/A   Clear
6:53 PM 34.0 °F - 14.0 °F 44% 30.27 in 10.0 mi Calm Calm - N/A   Clear
7:53 PM 33.1 °F - 14.0 °F 46% 30.28 in 10.0 mi Calm Calm - N/A   Clear
8:53 PM 32.0 °F 27.5 °F 12.9 °F 45% 30.29 in 10.0 mi East 4.6 mph - N/A   Clear
9:53 PM 33.1 °F 28.7 °F 10.0 °F 38% 30.30 in 10.0 mi East 4.6 mph - N/A   Clear
10:53 PM 28.9 °F 25.2 °F 14.0 °F 54% 30.30 in 10.0 mi ESE 3.5 mph - N/A   Clear
11:53 PM 28.0 °F - 15.1 °F 58% 30.29 in 10.0 mi Calm Calm - N/A   Clear